Houston Hull, TX

7:24 AM CST on November 15, 2019 (GMT -0600)
Sugar Land Municipal-Hull

Weather History for KSGR - September, 2019

Change the Weather History Date:

Friday, September 6, 2019

  Actual Average Record
Temperature  
Mean Temperature 86 °F -  
Max Temperature 98 °F 89 °F 100 °F (1997)
Min Temperature 73 °F 70 °F 55 °F (1974)
Cooling Degree Days 20    
Growing Degree Days 36 (Base 50)    
Moisture  
Dew Point 72 °F    
Average Humidity 71    
Maximum Humidity 100    
Minimum Humidity 37    
Precipitation  
Precipitation 0.00 in - - ()
Sea Level Pressure  
Sea Level Pressure 30.02 in    
Wind  
Wind Speed 3 mph (South)    
Max Wind Speed 13 mph    
Max Gust Speed -    
Visibility 10 miles    
Events      
Averages and records for this station are not official NWS values.
T = Trace of Precipitation, MM = Missing Value Source: NWS Daily Summary

Daily Weather History Graph

Daily Weather History Graph

Search for Another Location

Airport or City:

Astronomy

Sep. 06, 2019 Rise Set
Actual Time 7:02 AM CDT 7:39 PM CDT
Civil Twilight 6:38 AM CDT 8:03 PM CDT
Nautical Twilight 6:10 AM CDT 8:31 PM CDT
Astronomical Twilight 5:41 AM CDT 9:00 PM CDT
Moon 2:38 PM CDT (9/6) 12:28 AM CDT (9/6)
Length of Visible Light 13h 24m
Length of Day
12h 36m
First Quarter, 56% of the Moon is Illuminated
Sep 6
First Quarter
Sep 13
Full
Sep 21
Last Quarter
Sep 28
New
Oct 5
First Quarter

Hourly Weather History & Observations

Time (CDT) Temp. Heat Index Dew Point Humidity Pressure Visibility Wind Dir Wind Speed Gust Speed Precip Events Conditions
12:53 AM 78.1 °F - 73.9 °F 87% 30.03 in 10.0 mi SW 3.5 mph - N/A   Clear
1:53 AM 75.9 °F - 73.9 °F 94% 30.03 in 10.0 mi WSW 3.5 mph - N/A   Unknown
2:53 AM 73.9 °F - 73.0 °F 97% 30.04 in 10.0 mi Calm Calm - N/A   Clear
3:53 AM 73.9 °F - 73.9 °F 100% 30.03 in 10.0 mi Calm Calm - N/A   Clear
4:53 AM 73.0 °F - 73.0 °F 100% 30.03 in 10.0 mi Calm Calm - N/A   Clear
5:53 AM 73.0 °F - 73.0 °F 100% 30.04 in 9.0 mi Calm Calm - N/A   Clear
6:46 AM 73.0 °F - 73.0 °F 100% 30.04 in 10.0 mi Calm Calm - N/A   Mostly Cloudy
6:53 AM 73.9 °F - 73.9 °F 100% 30.05 in 10.0 mi Calm Calm - N/A   Mostly Cloudy
7:01 AM 75.0 °F - 73.9 °F 96% 30.05 in 10.0 mi Calm Calm - N/A   Scattered Clouds
7:05 AM 75.0 °F - 73.9 °F 96% 30.05 in 10.0 mi Calm Calm - N/A   Mostly Cloudy
7:49 AM 75.2 °F - 75.2 °F 100% 30.06 in 10.0 mi Calm Calm - N/A   Clear
7:53 AM 75.9 °F - 75.0 °F 97% 30.06 in 10.0 mi Calm Calm - N/A   Clear
8:53 AM 82.0 °F 91.0 °F 78.1 °F 88% 30.08 in 10.0 mi NW 4.6 mph - N/A   Clear
9:53 AM 86.0 °F 98.3 °F 78.1 °F 77% 30.08 in 10.0 mi NNW 4.6 mph - N/A   Clear
10:53 AM 90.0 °F 101.3 °F 75.9 °F 63% 30.08 in 10.0 mi NNW 3.5 mph - N/A   Clear
11:53 AM 93.0 °F 100.7 °F 72.0 °F 50% 30.07 in 10.0 mi Variable 4.6 mph - N/A   Clear
12:53 PM 96.1 °F 104.9 °F 72.0 °F 46% 30.06 in 10.0 mi Variable 4.6 mph - N/A   Scattered Clouds
1:53 PM 95.0 °F 102.5 °F 71.1 °F 46% 30.04 in 10.0 mi Variable 3.5 mph - N/A   Partly Cloudy
2:53 PM 97.0 °F 104.8 °F 71.1 °F 43% 30.01 in 10.0 mi SSE 6.9 mph - N/A   Mostly Cloudy
3:53 PM 97.0 °F 102.8 °F 69.1 °F 40% 29.98 in 10.0 mi SE 5.8 mph - N/A   Partly Cloudy
4:16 PM 97.0 °F 102.8 °F 69.1 °F 40% 29.97 in 10.0 mi SE 9.2 mph - N/A   Partly Cloudy
4:21 PM 97.0 °F 102.2 °F 68.0 °F 39% 29.97 in 10.0 mi ESE 8.1 mph - N/A   Partly Cloudy
4:35 PM 98.1 °F 103.0 °F 68.0 °F 37% 29.97 in 10.0 mi Variable 4.6 mph - N/A   Partly Cloudy
4:53 PM 97.0 °F 102.2 °F 68.0 °F 39% 29.96 in 10.0 mi ESE 8.1 mph - N/A   Clear
5:53 PM 95.0 °F 100.7 °F 69.1 °F 43% 29.96 in 10.0 mi South 11.5 mph - N/A   Clear
6:53 PM 91.0 °F 95.2 °F 68.0 °F 47% 29.97 in 10.0 mi SSE 12.7 mph - N/A   Clear
7:53 PM 87.1 °F 89.9 °F 66.9 °F 51% 29.98 in 10.0 mi South 11.5 mph - N/A   Clear
8:53 PM 82.9 °F 85.8 °F 68.0 °F 60% 29.99 in 10.0 mi South 8.1 mph - N/A   Clear
9:53 PM 82.0 °F 86.7 °F 72.0 °F 71% 30.01 in 10.0 mi South 6.9 mph - N/A   Clear
10:53 PM 80.1 °F 84.2 °F 73.0 °F 79% 30.02 in 10.0 mi South 6.9 mph - N/A   Clear
11:53 PM 79.0 °F - 73.9 °F 84% 30.02 in 10.0 mi SSW 4.6 mph - N/A   Clear